Regional Weather Roundup
Issued by NWS

Home | Current Version | Previous Version | Graphics & Text | Print | Product List | Glossary On
Versions: 1 2 3 4 5 6 7 8 9 10 11 12 13 14 15 16 17 18 19 20 21 22 23 24 25 26 27 28 29 30 31 32 33 34 35 36 37 38 39 40 41 42 43 44 45 46 47 48 49 50
000
ASUS43 KDMX 090707
RWRIA

WEATHER ROUNDUP FOR IOWA
NATIONAL WEATHER SERVICE DES MOINES IA
200 AM CDT WED JUL 09 2014

NOTE: "FAIR" INDICATES FEW OR NO CLOUDS BELOW 12,000 FEET WITH NO
SIGNIFICANT WEATHER AND/OR OBSTRUCTIONS TO VISIBILITY.

* - THESE STATIONS ARE NOT NWS STATIONS...THUS NOT UNDER NWS
QUALITY CONTROL.  THEY ALSO DO NOT REPORT WEATHER SUCH
AS PRECIPITATION OR FOG.

IAZ001>003-012>014-020>022-031>034-043>046-090800-
   NORTHWEST IOWA

CITY           SKY/WX    TMP DP  RH WIND       PRES   REMARKS
CARROLL *      CLOUDY    61  57  88 NW7       30.00R
CHEROKEE *     CLEAR     57  55  94 CALM      30.01S
DENISON *      PTCLDY    63  59  88 N5        30.00S
LE MARS *      CLEAR     59  57  94 CALM      30.02S
ORANGE CITY *  CLEAR     57  54  88 NW5       30.02S
SHELDON *        N/A     54  54 100 W5        30.00S
SIOUX CITY     CLEAR     60  57  89 W6        30.02S
SPENCER        CLEAR     55  52  89 W5        30.00S
STORM LAKE *   CLEAR     59  55  88 NW7       30.01S
$$

IAZ055>058-069>071-079>083-090>094-090800-
   SOUTHWEST IOWA

CITY           SKY/WX    TMP DP  RH WIND       PRES   REMARKS
ATLANTIC *     CLEAR     64  59  82 NW7       30.00S
AUDUBON *      CLEAR     64  61  88 CALM      30.02R
CLARINDA *     CLEAR     61  61 100 CALM      30.02R
COUNCIL BLFS * CLEAR     64  61  88 N5        30.01S
CRESTON *      CLEAR     63  59  88 NW7       30.00S
HARLAN  *      CLEAR     63  59  88 CALM      30.05R
LAMONI         CLEAR     64  59  83 W6        29.98S
RED OAK *      CLEAR     64  59  82 NW8       30.01R
SHENANDOAH *     N/A     63  61  94 SW5       30.02R
$$

IAZ047>049-059>061-072>074-084-090800-
   CENTRAL IOWA

CITY           SKY/WX    TMP DP  RH WIND       PRES   REMARKS
AMES           CLEAR     64  57  78 NW7       29.96R
ANKENY *       CLEAR     66  59  77 NW8       29.96R
CHARITON *     PTCLDY    64  61  88 W8        29.97R
DES MOINES     CLEAR     67  59  75 N6        29.96R
GRINNELL*      CLEAR     63  59  88 NW3       29.95R
KNOXVILLE *    CLEAR     64  59  82 NW7       29.94S
MARSHALLTOWN   CLEAR     60  57  89 NW8       29.94R
PELLA *        CLEAR     66  61  82 NW5       29.96R
PERRY *          N/A     63  61  94 NW6       29.98S
$$

IAZ004>006-015-016-023>025-035-036-090800-
   NORTH CENTRAL IOWA

CITY           SKY/WX    TMP DP  RH WIND       PRES   REMARKS
ALGONA *       PTCLDY    57  52  82 NW6       29.98S
CLARION *      CLEAR     57  54  88 NW7       29.96S
ESTHERVILLE    CLEAR     54  49  83 NW8       29.98S
FORT DODGE *   CLEAR     61  54  77 CALM      29.98S
MASON CITY     CLEAR     59  52  77 NW12      29.96S
FOREST CITY *  CLEAR     59  50  72 NW5       29.96S
IOWA FALLS *     N/A     59  55  88 CALM      29.96R
$$

IAZ007>011-017>019-026>030-037>042-050>054-066-090800-
   NORTHEAST IOWA

CITY           SKY/WX    TMP DP  RH WIND       PRES   REMARKS
CEDAR RAPIDS   CLEAR     60  56  86 NW6       29.91R
CHARLES CITY * CLEAR     57  54  88 NW7       29.93S
CLINTON *      CLEAR     57  55  94 W6        29.91R
DECORAH *        N/A    N/A N/A N/A MISG        N/A
DUBUQUE        CLEAR     60  54  80 NW7       29.89S
MONTICELLO *   CLEAR     59  55  88 CALM      29.90R
OELWEIN *      CLEAR     57  57 100 W7        29.92S
WATERLOO       CLEAR     60  55  83 NW6       29.91R
$$

IAZ064-065-067-068-078-090800-
   EAST CENTRAL IOWA

CITY           SKY/WX    TMP DP  RH WIND       PRES   REMARKS
DAVENPORT      CLEAR     60  58  92 W6        29.91R
IOWA CITY      CLEAR     64  60  87 NW5       29.92R
MT. PLEASANT * CLEAR     64  59  82 W5        29.93R
MUSCATINE *    CLEAR     64  61  88 W5        29.91R
QUAD CITIES    CLEAR     63  58  83 W3        29.89R
$$

IAZ062-063-075>077-085>089-095>099-090800-
   SOUTHEAST IOWA

CITY           SKY/WX    TMP DP  RH WIND       PRES   REMARKS
BURLINGTON     PTCLDY    67  60  78 W5        29.92R
FAIRFIELD *    CLEAR     64  59  82 W6        29.94R
FORT MADISON * CLEAR     66  63  88 W6        29.93S
KEOKUK *       CLEAR     64  61  88 W7        29.92S
OSKALOOSA *      N/A     63  61  94 NW7       29.95R
CENTERVILLE *  CLEAR     64  61  88 W6        29.98R
OTTUMWA        CLEAR     63  59  87 W7        29.94R
WASHINGTON *   CLEAR     64  61  88 W6        29.92S
$$

ABBREVIATIONS USED IN REMARKS
   TC - TEMPERATURES IN CELSIUS
  WCI - WIND CHILL INDEX
   HX - HEAT INDEX
  VSB - VISIBILITY
$$



USA.gov is the U.S. government's official web portal to all federal, state and local government web resources and services.